Weather in Urtazym

Russia / Orenburg Oblast     52°12′13″N   58°50′33″E
temp.,
°C
wind,
m/s
gust,
m/s
humid.,
%
clouds,
%
prec.,
mm/h
press.,
hPa
HPBL,
m
2 august, mon
mon223:00+22ne225813 0.0 101415
02:00+21nnw117095 0.0 101411
05:00+20sw226827 0.0 101413
08:00+24w344455 0.0 1014185
11:00+30w463017 0.0 10141338
14:00+32nw562441 0.0 10133174
17:00+33nw562213 0.0 10132983
20:00+28n48325 0.0 1013170
3 august, tue
tue323:00+22nne34445 0.0 101564
02:00+20n22515 0.0 101512
05:00+19n1255100 0.0 101611
08:00+24nw22445 0.0 1016167
11:00+30wnw233012 0.0 1015932
14:00+33wnw152229 0.0 10143152
17:00+34nne242091 0.0 10122821
20:00+30se22305 0.0 101226
4 august, wed
wed423:00+26wnw223633 0.0 101219
02:00+24wsw224013 0.0 101314
05:00+22wsw114258 0.0 101311
08:00+26wsw23365 0.0 1013197
11:00+32nw232514 0.0 1012711
14:00+37w361743 0.0 10104165
17:00+36ne141999 0.0 10102541
20:00+29ssw353691 0.0 1011137
5 august, thu
thu523:00+22ne5105697 0.9 1011144
02:00+22nnw336071 0.0 101241
05:00+20nne117596 0.0 101220
08:00+23nnw2259100 0.0 1012150
11:00+30e213628 0.0 1011642
14:00+35sse442379 0.0 10091851
17:00+35ssw7101961 0.0 10063322
20:00+22n10146144 0.0 1009471
6 august, fri
fri623:00+18ne387753 0.0 1010204
02:00+18nne478370 0.0 1010186
05:00+17nne36899 0.0 1010131
08:00+20nne567199 0.0 1011412
11:00+25nne66503 0.0 10101066
14:00+27nne55413 0.0 10101563
17:00+28n533846 0.0 10102334
20:00+24nne6104482 0.0 1010588